LOCATION_NAME,SAMPLE COLLECTION TIME,DOSE EQUIVALENT RATE (nSv/h),GAMMA COUNT RATE R02 (CPM),GAMMA COUNT RATE R03 (CPM),GAMMA COUNT RATE R04 (CPM),GAMMA COUNT RATE R05 (CPM),GAMMA COUNT RATE R06 (CPM),GAMMA COUNT RATE R07 (CPM),GAMMA COUNT RATE R08 (CPM),GAMMA COUNT RATE R09 (CPM),STATUS
DE: DOVER,01/01/2016 00:55:00,,1732.00,1024.00,304.00,160.00,96.00,122.00,63.00,25.00,APPROVED
DE: DOVER,01/01/2016 01:55:00,,1752.00,1028.00,302.00,160.00,97.00,124.00,64.00,26.00,APPROVED
DE: DOVER,01/01/2016 02:56:00,,1757.00,1032.00,304.00,155.00,98.00,126.00,62.00,24.00,APPROVED
DE: DOVER,01/01/2016 03:56:00,,1782.00,1032.00,307.00,161.00,98.00,128.00,62.00,24.00,APPROVED
DE: DOVER,01/01/2016 04:56:00,,1783.00,1048.00,313.00,156.00,98.00,126.00,60.00,25.00,APPROVED
DE: DOVER,01/01/2016 05:56:00,,1795.00,1054.00,307.00,157.00,97.00,125.00,60.00,25.00,APPROVED
DE: DOVER,01/01/2016 06:57:00,,1783.00,1042.00,309.00,157.00,99.00,126.00,60.00,25.00,APPROVED
DE: DOVER,01/01/2016 07:57:00,,1778.00,1038.00,309.00,155.00,95.00,125.00,57.00,25.00,APPROVED
DE: DOVER,01/01/2016 08:57:00,,1776.00,1042.00,311.00,156.00,98.00,127.00,57.00,25.00,APPROVED
DE: DOVER,01/01/2016 09:57:00,,1784.00,1039.00,311.00,158.00,95.00,129.00,57.00,24.00,APPROVED
DE: DOVER,01/01/2016 10:57:00,,1779.00,1048.00,314.00,155.00,98.00,128.00,58.00,26.00,APPROVED
DE: DOVER,01/01/2016 11:58:00,,1790.00,1047.00,315.00,158.00,100.00,131.00,58.00,26.00,APPROVED
DE: DOVER,01/01/2016 12:58:00,,1795.00,1061.00,317.00,161.00,96.00,132.00,59.00,25.00,APPROVED
DE: DOVER,01/01/2016 13:58:00,,1824.00,1077.00,322.00,162.00,101.00,133.00,59.00,26.00,APPROVED
DE: DOVER,01/01/2016 14:58:00,,1815.00,1077.00,323.00,163.00,101.00,135.00,61.00,26.00,APPROVED
DE: DOVER,01/01/2016 15:59:00,,1808.00,1072.00,313.00,164.00,101.00,129.00,60.00,25.00,APPROVED
DE: DOVER,01/01/2016 16:59:00,,1804.00,1049.00,310.00,158.00,98.00,129.00,63.00,26.00,APPROVED
DE: DOVER,01/01/2016 17:59:00,,1781.00,1040.00,307.00,160.00,95.00,125.00,60.00,25.00,APPROVED
DE: DOVER,01/01/2016 18:59:00,,1774.00,1044.00,307.00,156.00,97.00,127.00,61.00,25.00,APPROVED
DE: DOVER,01/01/2016 19:59:00,,1768.00,1047.00,316.00,158.00,97.00,123.00,63.00,26.00,APPROVED
DE: DOVER,01/01/2016 21:00:00,,1766.00,1040.00,307.00,161.00,99.00,127.00,63.00,25.00,APPROVED
DE: DOVER,01/01/2016 22:00:00,,1769.00,1040.00,306.00,159.00,96.00,127.00,61.00,26.00,APPROVED
DE: DOVER,01/01/2016 23:00:00,,1777.00,1036.00,303.00,154.00,99.00,125.00,58.00,23.00,APPROVED
DE: DOVER,01/02/2016 00:00:00,,1771.00,1025.00,301.00,155.00,96.00,126.00,57.00,24.00,APPROVED
DE: DOVER,01/02/2016 01:01:00,,1763.00,1020.00,304.00,152.00,97.00,123.00,56.00,25.00,APPROVED
DE: DOVER,01/02/2016 02:01:00,,1777.00,1016.00,305.00,152.00,94.00,121.00,56.00,25.00,APPROVED
DE: DOVER,01/02/2016 03:01:00,,1778.00,1016.00,304.00,150.00,94.00,123.00,54.00,25.00,APPROVED
DE: DOVER,01/02/2016 04:01:00,,1797.00,1015.00,301.00,148.00,95.00,125.00,52.00,24.00,APPROVED
DE: DOVER,01/02/2016 05:01:00,,1812.00,1023.00,303.00,146.00,96.00,123.00,52.00,23.00,APPROVED
DE: DOVER,01/02/2016 06:02:00,,1823.00,1029.00,307.00,146.00,97.00,128.00,48.00,24.00,APPROVED
DE: DOVER,01/02/2016 07:02:00,,1819.00,1028.00,310.00,148.00,96.00,127.00,50.00,23.00,APPROVED
DE: DOVER,01/02/2016 08:02:00,,1804.00,1045.00,313.00,151.00,96.00,130.00,49.00,24.00,APPROVED
DE: DOVER,01/02/2016 09:02:00,,1794.00,1031.00,308.00,148.00,94.00,128.00,49.00,23.00,APPROVED
DE: DOVER,01/02/2016 10:03:00,,1799.00,1024.00,308.00,148.00,95.00,132.00,49.00,23.00,APPROVED
DE: DOVER,01/02/2016 11:03:00,,1811.00,1036.00,310.00,148.00,93.00,129.00,49.00,24.00,APPROVED
DE: DOVER,01/02/2016 12:03:00,,1815.00,1031.00,307.00,150.00,95.00,132.00,49.00,24.00,APPROVED
DE: DOVER,01/02/2016 13:03:00,,1838.00,1045.00,315.00,150.00,98.00,131.00,49.00,25.00,APPROVED
DE: DOVER,01/02/2016 14:04:00,,1831.00,1051.00,314.00,153.00,96.00,131.00,49.00,25.00,APPROVED
DE: DOVER,01/02/2016 15:04:00,,1827.00,1049.00,310.00,156.00,98.00,128.00,52.00,25.00,APPROVED
DE: DOVER,01/02/2016 16:04:00,,1816.00,1054.00,311.00,156.00,96.00,128.00,59.00,26.00,APPROVED
DE: DOVER,01/02/2016 17:04:00,,1798.00,1052.00,310.00,161.00,99.00,127.00,60.00,25.00,APPROVED
DE: DOVER,01/02/2016 18:04:00,,1777.00,1042.00,311.00,156.00,99.00,127.00,62.00,25.00,APPROVED
DE: DOVER,01/02/2016 19:05:00,,1760.00,1027.00,310.00,156.00,99.00,121.00,65.00,26.00,APPROVED
DE: DOVER,01/02/2016 20:05:00,,1755.00,1033.00,313.00,158.00,97.00,122.00,63.00,26.00,APPROVED
DE: DOVER,01/02/2016 21:05:00,,1756.00,1028.00,309.00,158.00,99.00,124.00,64.00,25.00,APPROVED
DE: DOVER,01/02/2016 22:05:00,,1753.00,1030.00,303.00,157.00,96.00,122.00,60.00,26.00,APPROVED
DE: DOVER,01/02/2016 23:06:00,,1760.00,1025.00,303.00,152.00,98.00,124.00,59.00,25.00,APPROVED
DE: DOVER,01/03/2016 00:06:00,,1768.00,1018.00,305.00,152.00,95.00,124.00,55.00,25.00,APPROVED
DE: DOVER,01/03/2016 01:06:00,,1780.00,1026.00,305.00,145.00,94.00,126.00,53.00,25.00,APPROVED
DE: DOVER,01/03/2016 02:06:00,,1794.00,1026.00,302.00,150.00,94.00,127.00,52.00,26.00,APPROVED
DE: DOVER,01/03/2016 03:06:00,,1805.00,1021.00,305.00,149.00,96.00,125.00,51.00,24.00,APPROVED
DE: DOVER,01/03/2016 04:07:00,,1816.00,1029.00,305.00,149.00,97.00,127.00,50.00,23.00,APPROVED
DE: DOVER,01/03/2016 05:07:00,,1834.00,1044.00,308.00,152.00,97.00,128.00,48.00,24.00,APPROVED
DE: DOVER,01/03/2016 06:07:00,,1844.00,1048.00,310.00,152.00,95.00,128.00,50.00,25.00,APPROVED
DE: DOVER,01/03/2016 07:07:00,,1851.00,1045.00,316.00,150.00,96.00,131.00,48.00,24.00,APPROVED
DE: DOVER,01/03/2016 08:08:00,,1844.00,1052.00,320.00,149.00,100.00,132.00,49.00,26.00,APPROVED
DE: DOVER,01/03/2016 09:08:00,,1839.00,1063.00,315.00,152.00,97.00,133.00,51.00,25.00,APPROVED
DE: DOVER,01/03/2016 10:08:00,,1840.00,1065.00,320.00,154.00,99.00,135.00,49.00,25.00,APPROVED
DE: DOVER,01/03/2016 11:08:00,,1837.00,1068.00,319.00,153.00,99.00,134.00,49.00,26.00,APPROVED
DE: DOVER,01/03/2016 12:09:00,,1822.00,1047.00,314.00,154.00,98.00,131.00,49.00,25.00,APPROVED
DE: DOVER,01/03/2016 13:09:00,,1822.00,1051.00,314.00,152.00,98.00,132.00,50.00,25.00,APPROVED
DE: DOVER,01/03/2016 14:09:00,,1826.00,1054.00,312.00,153.00,92.00,131.00,50.00,25.00,APPROVED
DE: DOVER,01/03/2016 15:09:00,,1818.00,1047.00,315.00,154.00,98.00,130.00,54.00,25.00,APPROVED
DE: DOVER,01/03/2016 16:09:00,,1793.00,1050.00,308.00,157.00,99.00,123.00,58.00,25.00,APPROVED
DE: DOVER,01/03/2016 17:10:00,,1732.00,1024.00,307.00,157.00,97.00,123.00,65.00,25.00,APPROVED
DE: DOVER,01/03/2016 18:10:00,,1696.00,1001.00,305.00,157.00,98.00,119.00,66.00,25.00,APPROVED
DE: DOVER,01/03/2016 19:10:00,,1678.00,999.00,303.00,155.00,98.00,119.00,66.00,25.00,APPROVED
DE: DOVER,01/03/2016 20:10:00,,1706.00,1013.00,302.00,157.00,97.00,122.00,68.00,26.00,APPROVED
DE: DOVER,01/03/2016 21:11:00,,1722.00,1022.00,306.00,160.00,97.00,122.00,66.00,24.00,APPROVED
DE: DOVER,01/03/2016 22:11:00,,1723.00,1019.00,301.00,157.00,97.00,121.00,64.00,25.00,APPROVED
DE: DOVER,01/03/2016 23:11:00,,1759.00,1038.00,313.00,155.00,97.00,120.00,63.00,24.00,APPROVED
DE: DOVER,01/04/2016 00:11:00,,1813.00,1062.00,313.00,158.00,101.00,128.00,62.00,25.00,APPROVED
DE: DOVER,01/04/2016 01:11:00,,1844.00,1072.00,320.00,159.00,98.00,129.00,59.00,24.00,APPROVED
DE: DOVER,01/04/2016 02:12:00,,1856.00,1088.00,322.00,159.00,99.00,134.00,56.00,25.00,APPROVED
DE: DOVER,01/04/2016 03:12:00,,1864.00,1085.00,320.00,161.00,102.00,133.00,56.00,26.00,APPROVED
DE: DOVER,01/04/2016 04:12:00,,1886.00,1094.00,322.00,165.00,99.00,133.00,56.00,26.00,APPROVED
DE: DOVER,01/04/2016 05:12:00,,1899.00,1106.00,327.00,162.00,102.00,137.00,55.00,26.00,APPROVED
DE: DOVER,01/04/2016 06:13:00,,1928.00,1115.00,331.00,164.00,102.00,140.00,54.00,25.00,APPROVED
DE: DOVER,01/04/2016 07:13:00,,1930.00,1126.00,335.00,161.00,104.00,141.00,54.00,26.00,APPROVED
DE: DOVER,01/04/2016 08:13:00,,1923.00,1134.00,337.00,166.00,104.00,140.00,55.00,26.00,APPROVED
DE: DOVER,01/04/2016 09:13:00,,1916.00,1123.00,335.00,169.00,102.00,142.00,52.00,25.00,APPROVED
DE: DOVER,01/04/2016 10:14:00,,1890.00,1105.00,336.00,164.00,103.00,140.00,53.00,26.00,APPROVED
DE: DOVER,01/04/2016 11:14:00,,1863.00,1095.00,322.00,161.00,102.00,138.00,54.00,25.00,APPROVED
DE: DOVER,01/04/2016 12:14:00,,1845.00,1077.00,324.00,156.00,96.00,134.00,53.00,25.00,APPROVED
DE: DOVER,01/04/2016 13:14:00,,1844.00,1054.00,318.00,157.00,98.00,133.00,53.00,25.00,APPROVED
DE: DOVER,01/04/2016 14:14:00,,1799.00,1040.00,313.00,153.00,97.00,131.00,53.00,24.00,APPROVED
DE: DOVER,01/04/2016 15:15:00,,1800.00,1027.00,309.00,148.00,96.00,128.00,49.00,25.00,APPROVED
DE: DOVER,01/04/2016 16:15:00,,1780.00,1018.00,308.00,146.00,96.00,127.00,52.00,23.00,APPROVED
DE: DOVER,01/04/2016 17:15:00,,1756.00,1006.00,301.00,146.00,93.00,126.00,49.00,23.00,APPROVED
DE: DOVER,01/04/2016 18:15:00,,1750.00,982.00,297.00,143.00,91.00,120.00,49.00,24.00,APPROVED
DE: DOVER,01/04/2016 19:16:00,,1748.00,970.00,293.00,143.00,92.00,119.00,49.00,25.00,APPROVED
DE: DOVER,01/04/2016 20:16:00,,1754.00,971.00,290.00,136.00,91.00,119.00,48.00,23.00,APPROVED
DE: DOVER,01/04/2016 21:16:00,,1745.00,966.00,287.00,140.00,92.00,118.00,47.00,23.00,APPROVED
DE: DOVER,01/04/2016 22:16:00,,1750.00,963.00,289.00,136.00,93.00,122.00,45.00,23.00,APPROVED
DE: DOVER,01/04/2016 23:16:00,,1756.00,974.00,291.00,136.00,91.00,122.00,43.00,23.00,APPROVED
DE: DOVER,01/05/2016 00:17:00,,1753.00,966.00,289.00,136.00,90.00,122.00,41.00,23.00,APPROVED
DE: DOVER,01/05/2016 01:17:00,,1736.00,946.00,284.00,136.00,89.00,121.00,39.00,22.00,APPROVED
DE: DOVER,01/05/2016 02:17:00,,1730.00,951.00,287.00,136.00,91.00,122.00,39.00,24.00,APPROVED
DE: DOVER,01/05/2016 03:17:00,,1728.00,938.00,285.00,130.00,88.00,121.00,36.00,23.00,APPROVED
DE: DOVER,01/05/2016 04:18:00,,1728.00,932.00,283.00,132.00,90.00,122.00,35.00,23.00,APPROVED
DE: DOVER,01/05/2016 05:18:00,,1749.00,933.00,286.00,132.00,88.00,120.00,35.00,23.00,APPROVED
DE: DOVER,01/05/2016 06:18:00,,1752.00,937.00,287.00,131.00,91.00,118.00,33.00,23.00,APPROVED
DE: DOVER,01/05/2016 07:18:00,,1747.00,930.00,282.00,132.00,88.00,119.00,33.00,22.00,APPROVED
DE: DOVER,01/05/2016 08:18:00,,1741.00,923.00,277.00,128.00,87.00,119.00,34.00,23.00,APPROVED
DE: DOVER,01/05/2016 09:19:00,,1725.00,911.00,283.00,131.00,87.00,117.00,33.00,22.00,APPROVED
DE: DOVER,01/05/2016 10:19:00,,1719.00,909.00,278.00,128.00,87.00,118.00,34.00,23.00,APPROVED
DE: DOVER,01/05/2016 11:19:00,,1713.00,916.00,281.00,131.00,90.00,122.00,33.00,24.00,APPROVED
DE: DOVER,01/05/2016 12:19:00,,1715.00,913.00,282.00,128.00,91.00,117.00,33.00,22.00,APPROVED
DE: DOVER,01/05/2016 13:20:00,,1717.00,907.00,283.00,131.00,89.00,117.00,33.00,23.00,APPROVED
DE: DOVER,01/05/2016 14:20:00,,1706.00,913.00,280.00,132.00,89.00,119.00,34.00,22.00,APPROVED
DE: DOVER,01/05/2016 15:20:00,,1711.00,927.00,287.00,132.00,90.00,121.00,35.00,23.00,APPROVED
DE: DOVER,01/05/2016 16:20:00,,1716.00,935.00,287.00,132.00,88.00,121.00,36.00,23.00,APPROVED
DE: DOVER,01/05/2016 17:21:00,,1712.00,932.00,284.00,135.00,88.00,122.00,40.00,22.00,APPROVED
DE: DOVER,01/05/2016 18:21:00,,1712.00,944.00,280.00,133.00,87.00,120.00,40.00,24.00,APPROVED
DE: DOVER,01/05/2016 19:21:00,,1723.00,941.00,279.00,133.00,88.00,120.00,42.00,22.00,APPROVED
DE: DOVER,01/05/2016 20:21:00,,1716.00,941.00,280.00,134.00,89.00,116.00,44.00,23.00,APPROVED
DE: DOVER,01/05/2016 21:21:00,,1711.00,942.00,281.00,137.00,89.00,118.00,45.00,23.00,APPROVED
DE: DOVER,01/05/2016 22:22:00,,1717.00,944.00,282.00,136.00,91.00,120.00,42.00,22.00,APPROVED
DE: DOVER,01/05/2016 23:22:00,,1705.00,942.00,283.00,131.00,89.00,119.00,40.00,23.00,APPROVED
DE: DOVER,01/08/2016 18:44:00,,1544.00,932.00,272.00,150.00,92.00,110.00,73.00,24.00,APPROVED
DE: DOVER,01/08/2016 19:44:00,,1541.00,955.00,279.00,156.00,96.00,113.00,74.00,26.00,APPROVED
DE: DOVER,01/08/2016 20:45:00,,1550.00,951.00,280.00,159.00,98.00,114.00,76.00,27.00,APPROVED
DE: DOVER,01/08/2016 21:45:00,,1571.00,959.00,280.00,161.00,97.00,118.00,76.00,27.00,APPROVED
DE: DOVER,01/08/2016 22:45:00,,1557.00,964.00,282.00,164.00,96.00,118.00,73.00,27.00,APPROVED
DE: DOVER,01/08/2016 23:45:00,,1537.00,942.00,277.00,157.00,95.00,112.00,74.00,25.00,APPROVED
DE: DOVER,01/09/2016 00:46:00,,1534.00,924.00,271.00,156.00,95.00,111.00,73.00,25.00,APPROVED
DE: DOVER,01/09/2016 01:46:00,,1530.00,923.00,273.00,151.00,92.00,108.00,72.00,24.00,APPROVED
DE: DOVER,01/09/2016 02:46:00,,1533.00,914.00,270.00,150.00,92.00,110.00,72.00,23.00,APPROVED
DE: DOVER,01/09/2016 03:46:00,,1546.00,922.00,276.00,150.00,93.00,110.00,71.00,24.00,APPROVED
DE: DOVER,01/09/2016 04:46:00,,1544.00,923.00,274.00,152.00,93.00,109.00,70.00,24.00,APPROVED
DE: DOVER,01/09/2016 05:47:00,,1549.00,926.00,277.00,152.00,94.00,107.00,69.00,25.00,APPROVED
DE: DOVER,01/09/2016 06:47:00,,1558.00,942.00,278.00,153.00,98.00,108.00,73.00,24.00,APPROVED
DE: DOVER,01/09/2016 07:47:00,,1568.00,954.00,276.00,154.00,94.00,111.00,74.00,25.00,APPROVED
DE: DOVER,01/09/2016 08:47:00,,1573.00,949.00,276.00,158.00,97.00,111.00,72.00,25.00,APPROVED
DE: DOVER,01/09/2016 09:48:00,,1566.00,954.00,276.00,158.00,94.00,110.00,73.00,25.00,APPROVED
DE: DOVER,01/09/2016 10:48:00,,1568.00,947.00,280.00,156.00,94.00,113.00,73.00,25.00,APPROVED
DE: DOVER,01/09/2016 11:48:00,,1564.00,945.00,280.00,154.00,96.00,113.00,72.00,26.00,APPROVED
DE: DOVER,01/09/2016 12:48:00,,1557.00,954.00,278.00,158.00,95.00,114.00,74.00,26.00,APPROVED
DE: DOVER,01/09/2016 13:48:00,,1558.00,951.00,282.00,155.00,97.00,116.00,74.00,25.00,APPROVED
DE: DOVER,01/09/2016 14:49:00,,1540.00,947.00,278.00,157.00,97.00,114.00,73.00,25.00,APPROVED
DE: DOVER,01/09/2016 15:49:00,,1520.00,930.00,273.00,155.00,94.00,111.00,73.00,25.00,APPROVED
DE: DOVER,01/09/2016 16:49:00,,1463.00,912.00,273.00,157.00,96.00,110.00,73.00,23.00,APPROVED
DE: DOVER,01/09/2016 17:49:00,,1443.00,888.00,267.00,152.00,94.00,111.00,72.00,26.00,APPROVED
DE: DOVER,01/09/2016 18:50:00,,1398.00,869.00,259.00,152.00,95.00,112.00,72.00,25.00,APPROVED
DE: DOVER,01/09/2016 19:50:00,,1389.00,859.00,263.00,147.00,92.00,109.00,74.00,24.00,APPROVED
DE: DOVER,01/09/2016 20:50:00,,1405.00,862.00,266.00,147.00,90.00,108.00,71.00,26.00,APPROVED
DE: DOVER,01/09/2016 21:50:00,,1419.00,866.00,264.00,147.00,93.00,110.00,74.00,25.00,APPROVED
DE: DOVER,01/09/2016 22:51:00,,1431.00,878.00,265.00,145.00,92.00,110.00,74.00,24.00,APPROVED
DE: DOVER,01/09/2016 23:51:00,,1453.00,874.00,265.00,148.00,92.00,109.00,72.00,25.00,APPROVED
DE: DOVER,01/10/2016 00:51:00,,1459.00,889.00,265.00,149.00,94.00,111.00,74.00,25.00,APPROVED
DE: DOVER,01/10/2016 01:51:00,,1457.00,890.00,264.00,149.00,92.00,110.00,71.00,24.00,APPROVED
DE: DOVER,01/10/2016 02:51:00,,1465.00,888.00,269.00,148.00,94.00,112.00,71.00,24.00,APPROVED
DE: DOVER,01/10/2016 03:52:00,,1459.00,892.00,266.00,149.00,91.00,109.00,73.00,24.00,APPROVED
DE: DOVER,01/10/2016 04:52:00,,1457.00,885.00,266.00,147.00,93.00,109.00,71.00,23.00,APPROVED
DE: DOVER,01/10/2016 05:52:00,,1447.00,881.00,264.00,146.00,92.00,109.00,71.00,25.00,APPROVED
DE: DOVER,01/10/2016 06:52:00,,1486.00,913.00,275.00,156.00,95.00,112.00,73.00,26.00,APPROVED
DE: DOVER,01/10/2016 07:53:00,,1515.00,952.00,280.00,160.00,98.00,115.00,76.00,27.00,APPROVED
DE: DOVER,01/10/2016 08:53:00,,1497.00,938.00,279.00,161.00,97.00,115.00,73.00,27.00,APPROVED
DE: DOVER,01/10/2016 10:53:00,,1417.00,858.00,258.00,141.00,90.00,107.00,71.00,25.00,APPROVED
DE: DOVER,01/10/2016 11:53:00,,1377.00,831.00,255.00,143.00,88.00,107.00,69.00,23.00,APPROVED
DE: DOVER,01/10/2016 12:54:00,,1353.00,809.00,249.00,136.00,87.00,105.00,66.00,23.00,APPROVED
DE: DOVER,01/10/2016 13:54:00,,1342.00,818.00,256.00,137.00,88.00,104.00,70.00,23.00,APPROVED
DE: DOVER,01/10/2016 14:54:00,,1330.00,808.00,249.00,138.00,89.00,104.00,70.00,24.00,APPROVED
DE: DOVER,01/10/2016 15:54:00,,1317.00,809.00,252.00,139.00,87.00,104.00,70.00,24.00,APPROVED
DE: DOVER,01/10/2016 16:55:00,,1319.00,823.00,251.00,143.00,90.00,106.00,71.00,24.00,APPROVED
DE: DOVER,01/10/2016 17:55:00,,1318.00,822.00,257.00,147.00,89.00,111.00,71.00,26.00,APPROVED
DE: DOVER,01/10/2016 19:55:00,,1315.00,825.00,255.00,149.00,91.00,112.00,72.00,25.00,APPROVED
DE: DOVER,01/10/2016 20:56:00,,1346.00,849.00,261.00,151.00,91.00,115.00,75.00,26.00,APPROVED
DE: DOVER,01/10/2016 21:56:00,,1401.00,892.00,270.00,157.00,93.00,115.00,76.00,26.00,APPROVED
DE: DOVER,01/10/2016 22:56:00,,1458.00,929.00,277.00,161.00,97.00,119.00,78.00,27.00,APPROVED
DE: DOVER,01/10/2016 23:56:00,,1586.00,1012.00,295.00,179.00,103.00,125.00,80.00,29.00,APPROVED
DE: DOVER,01/12/2016 07:12:00,,1474.00,862.00,267.00,133.00,89.00,109.00,53.00,23.00,APPROVED
DE: DOVER,01/12/2016 08:12:00,,1519.00,932.00,281.00,151.00,84.00,102.00,85.00,27.00,APPROVED
DE: DOVER,01/12/2016 09:12:00,,1623.00,967.00,291.00,152.00,95.00,119.00,65.00,23.00,APPROVED
DE: DOVER,01/12/2016 10:12:00,,1658.00,994.00,295.00,161.00,99.00,121.00,66.00,24.00,APPROVED
DE: DOVER,01/12/2016 11:13:00,,1640.00,972.00,286.00,156.00,96.00,118.00,66.00,24.00,APPROVED
DE: DOVER,01/12/2016 12:13:00,,1648.00,963.00,286.00,150.00,95.00,117.00,64.00,24.00,APPROVED
DE: DOVER,01/12/2016 13:13:00,,1635.00,957.00,286.00,148.00,93.00,114.00,64.00,25.00,APPROVED
DE: DOVER,01/12/2016 14:13:00,,1610.00,945.00,273.00,145.00,92.00,109.00,63.00,23.00,APPROVED
DE: DOVER,01/12/2016 15:13:00,,1593.00,933.00,274.00,149.00,95.00,106.00,68.00,23.00,APPROVED
DE: DOVER,01/12/2016 16:14:00,,1554.00,928.00,275.00,148.00,93.00,105.00,69.00,25.00,APPROVED
DE: DOVER,01/12/2016 17:14:00,,1533.00,918.00,272.00,145.00,93.00,108.00,70.00,24.00,APPROVED
DE: DOVER,01/12/2016 18:14:00,,1534.00,919.00,272.00,148.00,93.00,108.00,72.00,25.00,APPROVED
DE: DOVER,01/12/2016 19:14:00,,1540.00,936.00,273.00,154.00,95.00,111.00,74.00,24.00,APPROVED
DE: DOVER,01/12/2016 20:10:00,,1535.00,937.00,275.00,153.00,95.00,113.00,73.00,25.00,APPROVED
DE: DOVER,01/12/2016 21:17:00,,1543.00,922.00,272.00,146.00,89.00,106.00,72.00,24.00,APPROVED
DE: DOVER,01/12/2016 22:17:00,,1549.00,928.00,274.00,151.00,94.00,110.00,73.00,24.00,APPROVED
DE: DOVER,01/12/2016 23:17:00,,1566.00,939.00,274.00,149.00,93.00,111.00,71.00,24.00,APPROVED
DE: DOVER,01/13/2016 00:18:00,,1600.00,960.00,278.00,153.00,96.00,108.00,73.00,25.00,APPROVED
DE: DOVER,01/13/2016 01:18:00,,1614.00,974.00,283.00,153.00,95.00,114.00,73.00,25.00,APPROVED
DE: DOVER,01/13/2016 02:18:00,,1656.00,999.00,290.00,163.00,97.00,115.00,73.00,27.00,APPROVED
DE: DOVER,01/13/2016 03:18:00,,1720.00,1048.00,298.00,170.00,104.00,121.00,75.00,28.00,APPROVED
DE: DOVER,01/13/2016 04:19:00,,1747.00,1078.00,306.00,176.00,104.00,123.00,75.00,28.00,APPROVED
DE: DOVER,01/13/2016 05:19:00,,1725.00,1059.00,309.00,175.00,102.00,123.00,73.00,26.00,APPROVED
DE: DOVER,01/13/2016 06:19:00,,1717.00,1044.00,302.00,168.00,101.00,123.00,72.00,25.00,APPROVED
DE: DOVER,01/13/2016 07:19:00,,1702.00,1028.00,303.00,165.00,100.00,123.00,71.00,26.00,APPROVED
DE: DOVER,01/13/2016 08:19:00,,1695.00,1018.00,299.00,162.00,101.00,124.00,69.00,24.00,APPROVED
DE: DOVER,01/13/2016 09:20:00,,1703.00,1016.00,300.00,160.00,98.00,123.00,69.00,24.00,APPROVED
DE: DOVER,01/13/2016 10:20:00,,1701.00,1011.00,299.00,157.00,101.00,120.00,65.00,25.00,APPROVED
DE: DOVER,01/13/2016 11:20:00,,1710.00,1003.00,297.00,156.00,96.00,120.00,66.00,24.00,APPROVED
DE: DOVER,01/13/2016 12:20:00,,1708.00,999.00,299.00,155.00,99.00,121.00,62.00,24.00,APPROVED
DE: DOVER,01/13/2016 13:20:00,,1697.00,987.00,295.00,152.00,96.00,118.00,64.00,23.00,APPROVED
DE: DOVER,01/13/2016 14:21:00,,1675.00,980.00,291.00,149.00,95.00,117.00,65.00,23.00,APPROVED
DE: DOVER,01/13/2016 15:21:00,,1667.00,964.00,286.00,151.00,96.00,115.00,62.00,25.00,APPROVED
DE: DOVER,01/13/2016 16:21:00,,1632.00,949.00,282.00,149.00,94.00,116.00,65.00,22.00,APPROVED
DE: DOVER,01/13/2016 17:21:00,,1610.00,949.00,284.00,151.00,93.00,111.00,65.00,25.00,APPROVED
DE: DOVER,01/13/2016 18:21:00,,1596.00,937.00,280.00,148.00,94.00,111.00,66.00,25.00,APPROVED
DE: DOVER,01/13/2016 19:22:00,,1593.00,926.00,276.00,148.00,93.00,110.00,65.00,22.00,APPROVED
DE: DOVER,01/13/2016 20:22:00,,1586.00,932.00,275.00,147.00,93.00,111.00,68.00,23.00,APPROVED
DE: DOVER,01/13/2016 21:22:00,,1583.00,922.00,278.00,143.00,93.00,109.00,64.00,23.00,APPROVED
DE: DOVER,01/13/2016 22:22:00,,1578.00,912.00,272.00,144.00,91.00,107.00,64.00,23.00,APPROVED
DE: DOVER,01/13/2016 23:23:00,,1579.00,911.00,271.00,141.00,93.00,109.00,65.00,23.00,APPROVED
DE: DOVER,01/14/2016 00:23:00,,1599.00,920.00,271.00,141.00,92.00,107.00,62.00,23.00,APPROVED
DE: DOVER,01/14/2016 01:23:00,,1624.00,926.00,274.00,141.00,92.00,108.00,63.00,22.00,APPROVED
DE: DOVER,01/14/2016 02:23:00,,1626.00,928.00,276.00,142.00,91.00,112.00,61.00,23.00,APPROVED
DE: DOVER,01/14/2016 03:23:00,,1636.00,926.00,277.00,141.00,95.00,108.00,63.00,23.00,APPROVED
DE: DOVER,01/14/2016 04:24:00,,1618.00,926.00,277.00,141.00,91.00,111.00,62.00,22.00,APPROVED
DE: DOVER,01/14/2016 05:24:00,,1608.00,921.00,274.00,141.00,92.00,110.00,61.00,23.00,APPROVED
DE: DOVER,01/14/2016 06:24:00,,1599.00,920.00,272.00,141.00,91.00,107.00,62.00,23.00,APPROVED
DE: DOVER,01/14/2016 07:24:00,,1591.00,920.00,279.00,142.00,92.00,111.00,62.00,22.00,APPROVED
DE: DOVER,01/14/2016 08:24:00,,1596.00,917.00,277.00,143.00,93.00,110.00,63.00,22.00,APPROVED
DE: DOVER,01/14/2016 09:25:00,,1590.00,915.00,278.00,142.00,92.00,109.00,62.00,23.00,APPROVED
DE: DOVER,01/14/2016 10:25:00,,1588.00,921.00,272.00,145.00,91.00,107.00,64.00,22.00,APPROVED
DE: DOVER,01/14/2016 11:25:00,,1596.00,928.00,272.00,145.00,92.00,108.00,65.00,22.00,APPROVED
DE: DOVER,01/14/2016 12:25:00,,1614.00,932.00,274.00,145.00,94.00,109.00,65.00,24.00,APPROVED
DE: DOVER,01/14/2016 13:26:00,,1649.00,941.00,281.00,147.00,94.00,113.00,65.00,23.00,APPROVED
DE: DOVER,01/14/2016 14:26:00,,1671.00,963.00,283.00,151.00,93.00,112.00,68.00,23.00,APPROVED
DE: DOVER,01/14/2016 15:26:00,,1664.00,978.00,287.00,155.00,95.00,115.00,70.00,24.00,APPROVED
DE: DOVER,01/14/2016 16:26:00,,1647.00,989.00,291.00,160.00,98.00,114.00,73.00,26.00,APPROVED
DE: DOVER,01/14/2016 17:26:00,,1618.00,982.00,281.00,162.00,99.00,116.00,75.00,26.00,APPROVED
DE: DOVER,01/14/2016 18:27:00,,1587.00,971.00,288.00,167.00,98.00,118.00,74.00,28.00,APPROVED
DE: DOVER,01/14/2016 19:27:00,,1549.00,954.00,282.00,163.00,98.00,116.00,75.00,27.00,APPROVED
DE: DOVER,01/14/2016 20:27:00,,1537.00,957.00,286.00,161.00,98.00,114.00,76.00,27.00,APPROVED
DE: DOVER,01/14/2016 21:27:00,,1551.00,952.00,284.00,164.00,97.00,116.00,76.00,26.00,APPROVED
DE: DOVER,01/14/2016 22:27:00,,1566.00,963.00,283.00,162.00,98.00,116.00,75.00,27.00,APPROVED
DE: DOVER,01/14/2016 23:28:00,,1575.00,963.00,282.00,160.00,97.00,115.00,75.00,26.00,APPROVED
DE: DOVER,01/15/2016 00:28:00,,1589.00,974.00,283.00,159.00,97.00,114.00,76.00,25.00,APPROVED
DE: DOVER,01/15/2016 01:28:00,,1623.00,970.00,287.00,159.00,97.00,110.00,75.00,25.00,APPROVED
DE: DOVER,01/15/2016 02:28:00,,1647.00,986.00,284.00,160.00,97.00,114.00,74.00,26.00,APPROVED
DE: DOVER,01/15/2016 03:29:00,,1675.00,992.00,283.00,159.00,97.00,112.00,72.00,26.00,APPROVED
DE: DOVER,01/15/2016 04:29:00,,1651.00,987.00,285.00,158.00,99.00,113.00,73.00,26.00,APPROVED
DE: DOVER,01/15/2016 05:29:00,,1630.00,987.00,282.00,161.00,98.00,116.00,75.00,24.00,APPROVED
DE: DOVER,01/15/2016 06:29:00,,1624.00,979.00,283.00,159.00,98.00,114.00,74.00,25.00,APPROVED
DE: DOVER,01/15/2016 07:29:00,,1619.00,984.00,288.00,160.00,97.00,115.00,73.00,25.00,APPROVED
DE: DOVER,01/15/2016 08:30:00,,1622.00,985.00,287.00,160.00,96.00,116.00,75.00,26.00,APPROVED
DE: DOVER,01/15/2016 09:30:00,,1627.00,991.00,287.00,163.00,98.00,114.00,74.00,26.00,APPROVED
DE: DOVER,01/15/2016 10:30:00,,1627.00,987.00,288.00,157.00,98.00,115.00,73.00,26.00,APPROVED
DE: DOVER,01/15/2016 11:30:00,,1646.00,994.00,293.00,161.00,98.00,115.00,74.00,25.00,APPROVED
DE: DOVER,01/15/2016 12:30:00,,1655.00,1016.00,292.00,164.00,100.00,118.00,73.00,26.00,APPROVED
DE: DOVER,01/15/2016 13:31:00,,1690.00,1018.00,300.00,165.00,101.00,120.00,74.00,26.00,APPROVED